| time (UTC) | temp F | wind direction | speed MPH | gust MPH | rain 1hr in | rain 24hr in | rain mn in | humidity % | barometer mb |
| 20260503024143 | 63 | 165 | 7.0 | 16.0 | 0.00 | 0.19 | 0.00 | 36 | 1006.9 |
| 20260503023123 | 64 | 155 | 8.0 | 18.0 | 0.00 | 0.25 | 0.00 | 35 | 1006.8 |
| 20260503022122 | 65 | 148 | 8.0 | 18.0 | 0.00 | 0.30 | 0.00 | 33 | 1006.8 |
| 20260503021122 | 66 | 158 | 6.0 | 14.0 | 0.00 | 0.39 | 0.00 | 32 | 1006.8 |
| 20260503020143 | 66 | 150 | 7.0 | 18.0 | 0.00 | 0.39 | 0.00 | 32 | 1006.8 |
| 20260503015122 | 67 | 175 | 6.0 | 14.0 | 0.00 | 0.39 | 0.00 | 31 | 1007.0 |
| 20260503014122 | 68 | 158 | 6.0 | 14.0 | 0.00 | 0.39 | 0.00 | 30 | 1007.0 |
| 20260503013143 | 69 | 172 | 6.0 | 13.0 | 0.00 | 0.39 | 0.00 | 29 | 1007.1 |
| 20260503012143 | 68 | 175 | 7.0 | 20.0 | 0.00 | 0.39 | 0.00 | 29 | 1007.3 |
| 20260503011122 | 69 | 171 | 7.0 | 17.0 | 0.00 | 0.39 | 0.00 | 28 | 1007.4 |
| 20260503010123 | 70 | 176 | 6.0 | 16.0 | 0.00 | 0.39 | 0.00 | 27 | 1007.4 |
| 20260503005122 | 71 | 170 | 5.0 | 13.0 | 0.00 | 0.39 | 0.00 | 27 | 1007.5 |
| 20260503004122 | 71 | 175 | 7.0 | 16.0 | 0.00 | 0.39 | 0.00 | 28 | 1007.5 |
| 20260503003122 | 70 | 175 | 6.0 | 15.0 | 0.00 | 0.39 | 0.00 | 28 | 1007.7 |
| 20260503002122 | 70 | 167 | 6.0 | 15.0 | 0.00 | 0.39 | 0.00 | 27 | 1007.8 |
| 20260503001123 | 71 | 154 | 5.0 | 14.0 | 0.00 | 0.39 | 0.00 | 27 | 1007.9 |
| 20260503000143 | 70 | 179 | 6.0 | 15.0 | 0.00 | 0.39 | 0.00 | 28 | 1007.9 |
| 20260502235143 | 70 | 177 | 6.0 | 16.0 | 0.00 | 0.39 | 0.00 | 28 | 1008.0 |
| 20260502234143 | 70 | 178 | 6.0 | 18.0 | 0.00 | 0.39 | 0.00 | 28 | 1008.2 |
| 20260502233123 | 69 | 189 | 5.0 | 17.0 | 0.00 | 0.39 | 0.00 | 28 | 1008.3 |
| 20260502232124 | 69 | 171 | 7.0 | 14.0 | 0.00 | 0.39 | 0.00 | 28 | 1008.5 |
| 20260502231123 | 69 | 184 | 6.0 | 14.0 | 0.00 | 0.39 | 0.00 | 29 | 1008.7 |
| 20260502230123 | 71 | 164 | 6.0 | 15.0 | 0.00 | 0.39 | 0.00 | 28 | 1008.7 |
| 20260502225123 | 70 | 164 | 6.0 | 16.0 | 0.00 | 0.39 | 0.00 | 29 | 1008.8 |
| 20260502224143 | 70 | 159 | 6.0 | 14.0 | 0.00 | 0.39 | 0.00 | 28 | 1009.0 |
| 20260502223124 | 69 | 156 | 6.0 | 18.0 | 0.00 | 0.39 | 0.00 | 29 | 1009.1 |
| 20260502222122 | 69 | 151 | 6.0 | 17.0 | 0.00 | 0.39 | 0.00 | 29 | 1009.3 |
| 20260502221122 | 69 | 147 | 5.0 | 19.0 | 0.00 | 0.39 | 0.00 | 29 | 1009.5 |
| 20260502220122 | 67 | 162 | 7.0 | 18.0 | 0.00 | 0.39 | 0.00 | 31 | 1009.5 |
| 20260502215122 | 68 | 164 | 7.0 | 18.0 | 0.00 | 0.39 | 0.00 | 30 | 1009.7 |
| 20260502214122 | 66 | 200 | 8.0 | 19.0 | 0.00 | 0.39 | 0.00 | 32 | 1009.9 |
| 20260502213122 | 68 | 197 | 5.0 | 16.0 | 0.00 | 0.39 | 0.00 | 31 | 1009.9 |
| 20260502212122 | 65 | 195 | 4.0 | 13.0 | 0.00 | 0.39 | 0.00 | 32 | 1010.2 |
| 20260502211122 | 68 | 180 | 5.0 | 17.0 | 0.00 | 0.39 | 0.00 | 29 | 1010.4 |
| 20260502210123 | 66 | 199 | 8.0 | 19.0 | 0.00 | 0.39 | 0.00 | 32 | 1010.4 |
| 20260502205123 | 64 | 179 | 5.0 | 14.0 | 0.00 | 0.40 | 0.00 | 33 | 1010.4 |
| 20260502204123 | 68 | 124 | 4.0 | 13.0 | 0.00 | 0.40 | 0.00 | 30 | 1010.7 |
| 20260502203122 | 67 | 167 | 5.0 | 13.0 | 0.00 | 0.42 | 0.00 | 31 | 1010.9 |
| 20260502202122 | 68 | 173 | 6.0 | 16.0 | 0.00 | 0.42 | 0.00 | 30 | 1011.1 |
| 20260502201122 | 63 | 196 | 6.0 | 18.0 | 0.00 | 0.42 | 0.00 | 34 | 1011.3 |
| 20260502200124 | 66 | 129 | 3.0 | 9.0 | 0.00 | 0.42 | 0.00 | 33 | 1011.3 |
| 20260502195122 | 62 | 202 | 5.0 | 18.0 | 0.00 | 0.42 | 0.00 | 35 | 1011.6 |
| 20260502194123 | 63 | 209 | 5.0 | 15.0 | 0.00 | 0.42 | 0.00 | 35 | 1011.8 |
| 20260502193143 | 60 | 220 | 8.0 | 17.0 | 0.00 | 0.48 | 0.00 | 37 | 1011.9 |
| 20260502192143 | 61 | 203 | 6.0 | 18.0 | 0.00 | 0.48 | 0.00 | 37 | 1012.0 |
| 20260502191122 | 62 | 192 | 6.0 | 18.0 | 0.00 | 0.48 | 0.00 | 36 | 1012.1 |
| 20260502190122 | 64 | 179 | 5.0 | 14.0 | 0.00 | 0.48 | 0.00 | 35 | 1012.1 |
| 20260502185144 | 61 | 144 | 6.0 | 14.0 | 0.00 | 0.48 | 0.00 | 37 | 1012.2 |
| 20260502184144 | 63 | 127 | 5.0 | 16.0 | 0.00 | 0.48 | 0.00 | 35 | 1012.3 |
| 20260502183123 | 60 | 130 | 5.0 | 17.0 | 0.00 | 0.48 | 0.00 | 37 | 1012.5 |
| 20260502182122 | 62 | 121 | 6.0 | 14.0 | 0.00 | 0.48 | 0.00 | 36 | 1012.7 |
| 20260502181122 | 61 | 135 | 6.0 | 14.0 | 0.00 | 0.48 | 0.00 | 36 | 1012.9 |
| 20260502180143 | 62 | 126 | 5.0 | 14.0 | 0.00 | 0.48 | 0.00 | 36 | 1012.9 |
| 20260502170122 | 58 | 162 | 4.0 | 13.0 | 0.00 | 0.48 | 0.00 | 40 | 1013.4 |
| 20260502164122 | 57 | 141 | 4.0 | 9.0 | 0.00 | 0.48 | 0.00 | 40 | 1013.5 |
| 20260502163122 | 56 | 131 | 5.0 | 9.0 | 0.00 | 0.48 | 0.00 | 41 | 1013.6 |
| 20260502162122 | 56 | 125 | 5.0 | 11.0 | 0.00 | 0.48 | 0.00 | 41 | 1013.7 |
| 20260502161122 | 56 | 101 | 4.0 | 10.0 | 0.00 | 0.48 | 0.00 | 44 | 1013.8 |
| 20260502160123 | 55 | 103 | 3.0 | 8.0 | 0.00 | 0.48 | 0.00 | 44 | 1013.8 |
| 20260502152143 | 53 | 97 | 4.0 | 8.0 | 0.00 | 0.48 | 0.00 | 47 | 1013.9 |
| 20260502151143 | 53 | 102 | 3.0 | 8.0 | 0.00 | 0.48 | 0.00 | 50 | 1013.9 |
| 20260502150123 | 52 | 90 | 3.0 | 7.0 | 0.00 | 0.48 | 0.00 | 53 | 1013.9 |
| 20260502140122 | 48 | 288 | 1.0 | 8.0 | 0.00 | 0.48 | 0.00 | 62 | 1013.6 |
| 20260502130143 | 45 | 357 | 1.0 | 4.0 | 0.00 | 0.48 | 0.00 | 67 | 1013.4 |
| 20260502123122 | 46 | 259 | 2.0 | 4.0 | 0.00 | 0.48 | 0.00 | 68 | 1013.4 |
| 20260502122122 | 46 | 289 | 1.0 | 4.0 | 0.00 | 0.48 | 0.00 | 65 | 1013.4 |
| 20260502121122 | 46 | 295 | 3.0 | 7.0 | 0.00 | 0.48 | 0.00 | 65 | 1013.4 |
| 20260502120122 | 46 | 346 | 3.0 | 6.0 | 0.00 | 0.48 | 0.00 | 66 | 1013.4 |
| 20260502115143 | 46 | 333 | 5.0 | 9.0 | 0.00 | 0.48 | 0.00 | 65 | 1013.4 |
| 20260502114122 | 46 | 355 | 5.0 | 9.0 | 0.00 | 0.48 | 0.00 | 66 | 1013.4 |
| 20260502113123 | 46 | 340 | 5.0 | 10.0 | 0.00 | 0.48 | 0.00 | 65 | 1013.4 |
| 20260502112122 | 46 | 11 | 3.0 | 7.0 | 0.00 | 0.48 | 0.00 | 67 | 1013.5 |
| 20260502111122 | 47 | 307 | 3.0 | 7.0 | 0.00 | 0.48 | 0.00 | 65 | 1013.4 |
| 20260502110122 | 48 | 289 | 3.0 | 7.0 | 0.00 | 0.48 | 0.00 | 64 | 1013.4 |
| 20260502105123 | 48 | 328 | 5.0 | 10.0 | 0.00 | 0.48 | 0.00 | 65 | 1013.5 |
| 20260502104122 | 48 | 344 | 5.0 | 12.0 | 0.00 | 0.48 | 0.00 | 64 | 1013.3 |
| 20260502103122 | 49 | 338 | 8.0 | 17.0 | 0.00 | 0.48 | 0.00 | 62 | 1013.4 |
| 20260502102122 | 49 | 325 | 9.0 | 18.0 | 0.00 | 0.48 | 0.00 | 60 | 1013.4 |
| 20260502101123 | 49 | 344 | 8.0 | 16.0 | 0.00 | 0.48 | 0.00 | 62 | 1013.3 |
| 20260502100143 | 49 | 326 | 7.0 | 15.0 | 0.00 | 0.48 | 0.00 | 62 | 1013.3 |
| 20260502091123 | 49 | 297 | 8.0 | 15.0 | 0.00 | 0.48 | 0.00 | 62 | 1013.2 |
| 20260502090123 | 50 | 308 | 8.0 | 18.0 | 0.00 | 0.48 | 0.00 | 61 | 1013.2 |
| 20260502071122 | 48 | 279 | 7.0 | 13.0 | 0.00 | 0.48 | 0.00 | 63 | 1012.8 |
| 20260502070143 | 48 | 288 | 8.0 | 15.0 | 0.00 | 0.48 | 0.00 | 63 | 1012.8 |
| 20260502065123 | 48 | 274 | 8.0 | 15.0 | 0.00 | 0.48 | 0.00 | 63 | 1012.8 |
| 20260502064122 | 48 | 280 | 6.0 | 13.0 | 0.00 | 0.48 | 0.00 | 63 | 1012.8 |
| 20260502063122 | 48 | 274 | 5.0 | 12.0 | 0.00 | 0.48 | 0.00 | 63 | 1012.7 |
| 20260502062122 | 48 | 266 | 6.0 | 12.0 | 0.00 | 0.48 | 0.00 | 63 | 1012.8 |
| 20260502061144 | 48 | 277 | 6.0 | 12.0 | 0.00 | 0.48 | 0.00 | 63 | 1012.7 |
| 20260502060125 | 48 | 272 | 6.0 | 13.0 | 0.00 | 0.48 | 0.00 | 64 | 1012.7 |
| 20260502055122 | 48 | 258 | 5.0 | 9.0 | 0.00 | 0.48 | 0.48 | 65 | 1012.6 |
| 20260502054123 | 48 | 247 | 4.0 | 8.0 | 0.00 | 0.48 | 0.48 | 63 | 1012.5 |
| 20260502053122 | 50 | 221 | 1.0 | 5.0 | 0.00 | 0.48 | 0.48 | 60 | 1012.3 |
| 20260502052126 | 50 | 90 | 0.0 | 3.0 | 0.00 | 0.48 | 0.48 | 59 | 1012.2 |
| 20260502051123 | 50 | 38 | 2.0 | 7.0 | 0.00 | 0.48 | 0.48 | 59 | 1012.1 |
| 20260502050123 | 51 | 340 | 5.0 | 12.0 | 0.00 | 0.48 | 0.48 | 58 | 1012.1 |
| 20260502045123 | 51 | 351 | 5.0 | 13.0 | 0.00 | 0.48 | 0.48 | 59 | 1012.2 |
| 20260502044123 | 51 | 2 | 5.0 | 13.0 | 0.00 | 0.48 | 0.48 | 59 | 1012.0 |
| 20260502043122 | 51 | 350 | 5.0 | 14.0 | 0.00 | 0.48 | 0.48 | 58 | 1012.0 |
| 20260502041122 | 51 | 41 | 7.0 | 18.0 | 0.01 | 0.48 | 0.48 | 59 | 1011.8 |
| 20260502040122 | 51 | 60 | 9.0 | 23.0 | 0.12 | 0.48 | 0.48 | 59 | 1011.6 |
| 20260502035122 | 53 | 15 | 11.0 | 26.0 | 0.12 | 0.48 | 0.48 | 56 | 1011.6 |
| 20260502034124 | 53 | 28 | 10.0 | 23.0 | 0.19 | 0.48 | 0.48 | 53 | 1011.6 |
| 20260502033146 | 53 | 31 | 12.0 | 29.0 | 0.25 | 0.48 | 0.48 | 53 | 1011.2 |
| 20260502032125 | 54 | 25 | 13.0 | 31.0 | 0.30 | 0.48 | 0.48 | 52 | 1011.0 |
| 20260502031143 | 54 | 15 | 15.0 | 32.0 | 0.38 | 0.47 | 0.47 | 51 | 1010.7 |
| 20260502030122 | 55 | 20 | 15.0 | 42.0 | 0.27 | 0.36 | 0.36 | 51 | 1010.7 |
| 20260502025144 | 55 | 33 | 16.0 | 34.0 | 0.27 | 0.36 | 0.36 | 51 | 1010.6 |